Time,TemperatureF,DewpointF,PressureIn,WindDirection,WindDirectionDegrees,WindSpeedMPH,WindSpeedGustMPH,Humidity,HourlyPrecipIn,Conditions,Clouds,dailyrainin,SoftwareType,DateUTC
2013-03-30 07:10:00,27.1,20.9,30.12,ENE,68,0.0,1.0,77,0.00,,---,0.00,VWS V14.01,2013-03-30 13:10:00,
2013-03-30 07:26:00,27.1,20.9,30.12,ENE,68,0.0,1.0,77,0.00,,---,0.00,VWS V14.01,2013-03-30 13:26:00,
2013-03-30 07:31:00,27.8,21.5,30.13,East,80,0.0,4.0,77,0.00,,---,0.00,VWS V14.01,2013-03-30 13:31:00,
2013-03-30 07:36:00,28.3,21.7,30.13,East,80,0.0,2.0,76,0.00,,---,0.00,VWS V14.01,2013-03-30 13:36:00,
2013-03-30 07:41:00,28.9,22.3,30.12,East,80,0.0,1.0,76,0.00,,---,0.00,VWS V14.01,2013-03-30 13:41:00,
2013-03-30 07:46:00,29.9,23.6,30.12,East,80,0.0,0.0,77,0.00,,---,0.00,VWS V14.01,2013-03-30 13:46:00,
2013-03-30 07:51:00,30.9,24.2,30.09,East,80,0.0,0.0,76,0.00,,---,0.00,VWS V14.01,2013-03-30 13:51:00,
2013-03-30 07:56:00,31.9,24.9,30.09,East,80,0.0,0.0,75,0.00,,---,0.00,VWS V14.01,2013-03-30 13:56:00,
2013-03-30 08:01:00,32.9,25.5,30.08,East,96,1.0,5.0,74,0.00,,---,0.00,VWS V14.01,2013-03-30 14:01:00,
2013-03-30 08:06:00,33.5,26.4,30.08,East,97,1.0,5.0,75,0.00,,---,0.00,VWS V14.01,2013-03-30 14:06:00,
2013-03-30 08:11:00,34.8,26.7,30.06,ESE,115,2.0,8.0,72,0.00,,---,0.00,VWS V14.01,2013-03-30 14:11:00,
2013-03-30 08:16:00,36.2,27.4,30.06,ESE,115,0.0,4.0,70,0.00,,---,0.00,VWS V14.01,2013-03-30 14:16:00,
2013-03-30 08:21:00,37.7,27.4,30.04,ESE,115,0.0,4.0,66,0.00,,---,0.00,VWS V14.01,2013-03-30 14:21:00,
2013-03-30 08:26:00,39.0,28.2,30.03,ESE,115,0.0,4.0,65,0.00,,---,0.00,VWS V14.01,2013-03-30 14:26:00,
2013-03-30 08:31:00,39.9,28.0,30.02,ESE,115,6.0,7.0,62,0.00,,---,0.00,VWS V14.01,2013-03-30 14:31:00,
2013-03-30 08:36:00,41.0,28.2,30.00,ESE,116,4.0,6.0,60,0.00,,---,0.00,VWS V14.01,2013-03-30 14:36:00,
2013-03-30 08:42:00,42.4,28.3,30.00,ESE,115,0.0,4.0,57,0.00,,---,0.00,VWS V14.01,2013-03-30 14:42:00,
2013-03-30 08:47:00,43.9,27.9,29.99,ESE,116,0.0,2.0,53,0.00,,---,0.00,VWS V14.01,2013-03-30 14:47:00,
2013-03-30 08:52:00,45.7,28.1,29.97,ESE,116,0.0,1.0,50,0.00,,---,0.00,VWS V14.01,2013-03-30 14:52:00,
2013-03-30 08:57:00,47.2,27.5,29.96,ESE,116,0.0,1.0,46,0.00,,---,0.00,VWS V14.01,2013-03-30 14:57:00,
2013-03-30 09:02:00,48.6,27.1,29.95,ESE,116,0.0,2.0,43,0.00,,---,0.00,VWS V14.01,2013-03-30 15:02:00,
2013-03-30 09:07:00,49.2,27.1,29.94,ESE,115,0.0,2.0,42,0.00,,---,0.00,VWS V14.01,2013-03-30 15:07:00,
2013-03-30 09:12:00,50.1,27.3,29.96,ESE,115,1.0,1.0,41,0.00,,---,0.00,VWS V14.01,2013-03-30 15:12:00,
2013-03-30 09:17:00,51.0,26.9,29.96,ESE,116,0.0,2.0,39,0.00,,---,0.00,VWS V14.01,2013-03-30 15:17:00,
2013-03-30 09:22:00,51.3,26.6,29.96,ESE,116,1.0,1.0,38,0.00,,---,0.00,VWS V14.01,2013-03-30 15:22:00,
2013-03-30 09:27:00,51.3,26.6,29.95,ESE,116,0.0,1.0,38,0.00,,---,0.00,VWS V14.01,2013-03-30 15:27:00,
2013-03-30 09:32:00,52.0,26.5,29.94,ESE,115,0.0,5.0,37,0.00,,---,0.00,VWS V14.01,2013-03-30 15:32:00,
2013-03-30 09:37:00,52.8,25.9,29.94,ESE,116,0.0,1.0,35,0.00,,---,0.00,VWS V14.01,2013-03-30 15:37:00,
2013-03-30 09:42:00,52.9,24.6,29.94,ESE,115,1.0,2.0,33,0.00,,---,0.00,VWS V14.01,2013-03-30 15:42:00,
2013-03-30 09:47:00,52.8,25.9,29.93,ESE,115,5.0,6.0,35,0.00,,---,0.00,VWS V14.01,2013-03-30 15:47:00,
2013-03-30 09:52:00,52.7,25.8,29.93,ESE,113,1.0,4.0,35,0.00,,---,0.00,VWS V14.01,2013-03-30 15:52:00,
2013-03-30 09:57:00,52.7,24.4,29.93,ESE,113,0.0,0.0,33,0.00,,---,0.00,VWS V14.01,2013-03-30 15:57:00,
2013-03-30 10:02:00,53.1,24.8,29.93,ESE,113,0.0,0.0,33,0.00,,---,0.00,VWS V14.01,2013-03-30 16:02:00,
2013-03-30 10:07:00,53.5,25.1,29.94,ESE,113,1.0,1.0,33,0.00,,---,0.00,VWS V14.01,2013-03-30 16:07:00,
2013-03-30 10:12:00,53.7,25.3,29.94,ESE,113,2.0,2.0,33,0.00,,---,0.00,VWS V14.01,2013-03-30 16:12:00,
2013-03-30 10:17:00,53.4,25.0,29.96,ESE,113,2.0,2.0,33,0.00,,---,0.00,VWS V14.01,2013-03-30 16:17:00,
2013-03-30 10:22:00,53.2,24.9,29.96,ESE,109,1.0,1.0,33,0.00,,---,0.00,VWS V14.01,2013-03-30 16:22:00,
2013-03-30 10:27:00,53.2,25.6,29.96,ESE,109,1.0,1.0,34,0.00,,---,0.00,VWS V14.01,2013-03-30 16:27:00,
2013-03-30 10:32:00,53.6,25.2,29.94,East,88,8.0,8.0,33,0.00,,---,0.00,VWS V14.01,2013-03-30 16:32:00,
2013-03-30 10:37:00,53.5,25.1,29.95,East,87,0.0,0.0,33,0.00,,---,0.00,VWS V14.01,2013-03-30 16:37:00,
2013-03-30 10:42:00,54.5,25.3,29.93,East,87,0.0,1.0,32,0.00,,---,0.00,VWS V14.01,2013-03-30 16:42:00,
2013-03-30 10:47:00,55.3,26.0,29.93,East,87,0.0,1.0,32,0.00,,---,0.00,VWS V14.01,2013-03-30 16:47:00,
2013-03-30 10:52:00,54.8,25.5,29.93,East,87,0.0,2.0,32,0.00,,---,0.00,VWS V14.01,2013-03-30 16:52:00,
2013-03-30 10:57:00,54.7,25.4,29.93,East,82,1.0,1.0,32,0.00,,---,0.00,VWS V14.01,2013-03-30 16:57:00,
2013-03-30 11:02:00,54.0,25.6,29.93,NNE,27,1.0,5.0,33,0.00,,---,0.00,VWS V14.01,2013-03-30 17:02:00,
2013-03-30 11:07:00,53.6,24.5,29.93,NW,326,2.0,4.0,32,0.00,,---,0.00,VWS V14.01,2013-03-30 17:07:00,
2013-03-30 11:12:00,53.9,24.0,29.99,West,275,5.0,6.0,31,0.00,,---,0.00,VWS V14.01,2013-03-30 17:12:00,
2013-03-30 11:17:00,53.8,24.6,29.98,WNW,299,5.0,6.0,32,0.00,,---,0.00,VWS V14.01,2013-03-30 17:17:00,
2013-03-30 11:22:00,53.7,23.8,29.99,WNW,299,5.0,6.0,31,0.00,,---,0.00,VWS V14.01,2013-03-30 17:22:00,
2013-03-30 11:27:00,53.2,22.6,29.99,NNW,346,8.0,15.0,30,0.00,,---,0.00,VWS V14.01,2013-03-30 17:27:00,
2013-03-30 11:32:00,53.5,23.6,29.98,NW,307,9.0,9.0,31,0.00,,---,0.00,VWS V14.01,2013-03-30 17:32:00,
2013-03-30 11:37:00,53.7,23.8,29.98,NW,317,12.0,12.0,31,0.00,,---,0.00,VWS V14.01,2013-03-30 17:37:00,
2013-03-30 11:42:00,54.0,24.8,29.98,NW,325,8.0,8.0,32,0.00,,---,0.00,VWS V14.01,2013-03-30 17:42:00,
2013-03-30 11:47:00,54.1,24.2,29.98,NW,313,5.0,13.0,31,0.00,,---,0.00,VWS V14.01,2013-03-30 17:47:00,
2013-03-30 11:52:00,55.1,25.0,29.95,North,349,14.0,14.0,31,0.00,,---,0.00,VWS V14.01,2013-03-30 17:52:00,
2013-03-30 11:57:00,55.6,24.7,29.95,NW,317,6.0,9.0,30,0.00,,---,0.00,VWS V14.01,2013-03-30 17:57:00,
2013-03-30 12:02:00,54.8,24.8,29.95,NNW,337,5.0,8.0,31,0.00,,---,0.00,VWS V14.01,2013-03-30 18:02:00,
2013-03-30 12:07:00,55.8,24.9,29.95,NW,314,10.0,10.0,30,0.00,,---,0.00,VWS V14.01,2013-03-30 18:07:00,
2013-03-30 12:12:00,56.2,23.5,29.96,NW,304,10.0,15.0,28,0.00,,---,0.00,VWS V14.01,2013-03-30 18:12:00,
2013-03-30 12:17:00,54.8,23.2,29.97,NW,317,11.0,12.0,29,0.00,,---,0.00,VWS V14.01,2013-03-30 18:17:00,
2013-03-30 12:22:00,55.2,23.5,29.97,NW,304,10.0,11.0,29,0.00,,---,0.00,VWS V14.01,2013-03-30 18:22:00,
2013-03-30 12:27:00,55.6,26.2,29.95,WSW,257,9.0,9.0,32,0.00,,---,0.00,VWS V14.01,2013-03-30 18:27:00,
2013-03-30 12:32:00,55.7,26.3,29.95,WSW,254,6.0,6.0,32,0.00,,---,0.00,VWS V14.01,2013-03-30 18:32:00,
2013-03-30 12:37:00,56.2,24.4,29.95,West,263,9.0,9.0,29,0.00,,---,0.00,VWS V14.01,2013-03-30 18:37:00,
2013-03-30 12:42:00,55.5,23.0,29.95,NW,319,10.0,10.0,28,0.00,,---,0.00,VWS V14.01,2013-03-30 18:42:00,
2013-03-30 12:47:00,54.7,25.4,29.96,West,268,12.0,16.0,32,0.00,,---,0.00,VWS V14.01,2013-03-30 18:47:00,
2013-03-30 12:52:00,54.3,23.5,29.97,NW,305,5.0,9.0,30,0.00,,---,0.00,VWS V14.01,2013-03-30 18:52:00,
2013-03-30 12:57:00,54.8,24.0,29.96,WNW,303,10.0,15.0,30,0.00,,---,0.00,VWS V14.01,2013-03-30 18:57:00,
2013-03-30 13:02:00,54.8,23.2,29.96,WSW,258,7.0,8.0,29,0.00,,---,0.00,VWS V14.01,2013-03-30 19:02:00,
2013-03-30 13:07:00,54.5,23.7,29.98,WNW,297,7.0,9.0,30,0.00,,---,0.00,VWS V14.01,2013-03-30 19:07:00,
2013-03-30 13:12:00,54.4,23.6,29.99,WNW,286,6.0,6.0,30,0.00,,---,0.00,VWS V14.01,2013-03-30 19:12:00,
2013-03-30 13:17:00,55.1,24.2,29.97,WNW,287,10.0,10.0,30,0.00,,---,0.00,VWS V14.01,2013-03-30 19:17:00,
2013-03-30 13:22:00,55.0,24.2,29.97,NW,321,5.0,5.0,30,0.00,,---,0.00,VWS V14.01,2013-03-30 19:22:00,
2013-03-30 13:27:00,55.3,24.4,29.97,NNW,340,1.0,1.0,30,0.00,,---,0.00,VWS V14.01,2013-03-30 19:27:00,
2013-03-30 13:32:00,56.0,25.0,29.96,SW,217,2.0,5.0,30,0.00,,---,0.00,VWS V14.01,2013-03-30 19:32:00,
2013-03-30 13:37:00,56.4,25.4,29.96,West,260,11.0,12.0,30,0.00,,---,0.00,VWS V14.01,2013-03-30 19:37:00,
2013-03-30 13:42:00,56.7,26.4,29.94,WSW,246,9.0,11.0,31,0.00,,---,0.00,VWS V14.01,2013-03-30 19:42:00,
2013-03-30 13:47:00,57.1,25.2,29.94,West,259,4.0,6.0,29,0.00,,---,0.00,VWS V14.01,2013-03-30 19:47:00,
2013-03-30 13:52:00,56.7,25.6,29.94,WSW,244,6.0,9.0,30,0.00,,---,0.00,VWS V14.01,2013-03-30 19:52:00,
2013-03-30 13:57:00,56.6,24.7,29.94,SW,227,10.0,13.0,29,0.00,,---,0.00,VWS V14.01,2013-03-30 19:57:00,
2013-03-30 14:02:00,56.6,24.7,29.93,NW,304,5.0,8.0,29,0.00,,---,0.00,VWS V14.01,2013-03-30 20:02:00,
2013-03-30 14:07:00,56.4,23.7,29.93,West,270,4.0,9.0,28,0.00,,---,0.00,VWS V14.01,2013-03-30 20:07:00,
2013-03-30 14:12:00,56.2,25.2,29.95,West,276,5.0,5.0,30,0.00,,---,0.00,VWS V14.01,2013-03-30 20:12:00,
2013-03-30 14:17:00,56.1,25.1,29.95,WNW,300,6.0,10.0,30,0.00,,---,0.00,VWS V14.01,2013-03-30 20:17:00,
2013-03-30 14:22:00,55.6,23.9,29.94,WNW,284,6.0,6.0,29,0.00,,---,0.00,VWS V14.01,2013-03-30 20:22:00,
2013-03-30 14:27:00,56.0,24.2,29.94,NW,309,6.0,12.0,29,0.00,,---,0.00,VWS V14.01,2013-03-30 20:27:00,
2013-03-30 14:32:00,55.7,24.0,29.94,NW,310,11.0,11.0,29,0.00,,---,0.00,VWS V14.01,2013-03-30 20:32:00,
2013-03-30 14:37:00,56.1,22.6,29.94,West,279,12.0,16.0,27,0.00,,---,0.00,VWS V14.01,2013-03-30 20:37:00,
2013-03-30 14:42:00,55.7,24.0,29.94,NW,304,10.0,12.0,29,0.00,,---,0.00,VWS V14.01,2013-03-30 20:42:00,
2013-03-30 14:47:00,55.5,22.1,29.94,West,273,5.0,6.0,27,0.00,,---,0.00,VWS V14.01,2013-03-30 20:47:00,
2013-03-30 14:52:00,56.2,23.5,29.93,WNW,303,7.0,11.0,28,0.00,,---,0.00,VWS V14.01,2013-03-30 20:52:00,
2013-03-30 14:57:00,56.4,22.9,29.93,WNW,298,6.0,9.0,27,0.00,,---,0.00,VWS V14.01,2013-03-30 20:57:00,
2013-03-30 15:02:00,57.4,21.9,29.92,West,263,11.0,11.0,25,0.00,,---,0.00,VWS V14.01,2013-03-30 21:02:00,
2013-03-30 15:07:00,57.0,22.5,29.93,NW,310,9.0,11.0,26,0.00,,---,0.00,VWS V14.01,2013-03-30 21:07:00,
2013-03-30 15:12:00,57.1,22.6,29.92,West,277,7.0,10.0,26,0.00,,---,0.00,VWS V14.01,2013-03-30 21:12:00,
2013-03-30 15:17:00,56.8,21.4,29.93,WNW,294,8.0,9.0,25,0.00,,---,0.00,VWS V14.01,2013-03-30 21:17:00,
2013-03-30 15:22:00,56.3,21.9,29.93,West,274,13.0,16.0,26,0.00,,---,0.00,VWS V14.01,2013-03-30 21:22:00,
2013-03-30 15:27:00,56.8,21.4,29.92,West,269,20.0,20.0,25,0.00,,---,0.00,VWS V14.01,2013-03-30 21:27:00,
2013-03-30 15:32:00,56.0,21.6,29.93,NW,309,11.0,14.0,26,0.00,,---,0.00,VWS V14.01,2013-03-30 21:32:00,
2013-03-30 15:37:00,56.2,23.5,29.92,NW,311,11.0,12.0,28,0.00,,---,0.00,VWS V14.01,2013-03-30 21:37:00,
2013-03-30 15:42:00,56.3,21.0,29.92,NW,311,9.0,9.0,25,0.00,,---,0.00,VWS V14.01,2013-03-30 21:42:00,
2013-03-30 15:47:00,57.3,21.8,29.92,NW,307,11.0,13.0,25,0.00,,---,0.00,VWS V14.01,2013-03-30 21:47:00,
2013-03-30 15:52:00,57.2,21.7,29.92,WNW,289,5.0,6.0,25,0.00,,---,0.00,VWS V14.01,2013-03-30 21:52:00,
2013-03-30 15:57:00,57.8,21.3,29.90,WNW,303,8.0,12.0,24,0.00,,---,0.00,VWS V14.01,2013-03-30 21:57:00,
2013-03-30 16:02:00,57.2,21.7,29.92,WNW,295,11.0,12.0,25,0.00,,---,0.00,VWS V14.01,2013-03-30 22:02:00,
2013-03-30 16:07:00,57.1,22.6,29.92,West,281,4.0,9.0,26,0.00,,---,0.00,VWS V14.01,2013-03-30 22:07:00,
2013-03-30 16:12:00,56.5,22.0,29.92,WNW,295,6.0,10.0,26,0.00,,---,0.00,VWS V14.01,2013-03-30 22:12:00,
2013-03-30 16:17:00,56.4,22.9,29.94,WNW,297,10.0,11.0,27,0.00,,---,0.00,VWS V14.01,2013-03-30 22:17:00,
2013-03-30 16:22:00,56.5,22.0,29.92,NW,310,11.0,11.0,26,0.00,,---,0.00,VWS V14.01,2013-03-30 22:22:00,
2013-03-30 16:27:00,56.5,22.0,29.92,West,263,10.0,13.0,26,0.00,,---,0.00,VWS V14.01,2013-03-30 22:27:00,
2013-03-30 16:32:00,57.2,23.5,29.91,West,280,11.0,15.0,27,0.00,,---,0.00,VWS V14.01,2013-03-30 22:32:00,
2013-03-30 16:37:00,58.3,23.6,29.92,NNW,343,11.0,11.0,26,0.00,,---,0.00,VWS V14.01,2013-03-30 22:37:00,
2013-03-30 16:42:00,58.4,23.7,29.92,WNW,300,11.0,15.0,26,0.00,,---,0.00,VWS V14.01,2013-03-30 22:42:00,
2013-03-30 16:47:00,58.4,22.7,29.91,West,272,6.0,10.0,25,0.00,,---,0.00,VWS V14.01,2013-03-30 22:47:00,
2013-03-30 16:52:00,58.1,22.5,29.91,West,266,11.0,22.0,25,0.00,,---,0.00,VWS V14.01,2013-03-30 22:52:00,
2013-03-30 16:57:00,57.9,23.2,29.92,WNW,284,9.0,12.0,26,0.00,,---,0.00,VWS V14.01,2013-03-30 22:57:00,
2013-03-30 17:02:00,58.2,22.6,29.92,WNW,299,8.0,14.0,25,0.00,,---,0.00,VWS V14.01,2013-03-30 23:02:00,
2013-03-30 17:07:00,58.3,23.6,29.92,NW,310,9.0,12.0,26,0.00,,---,0.00,VWS V14.01,2013-03-30 23:07:00,
2013-03-30 17:12:00,58.5,22.8,29.92,NW,305,12.0,14.0,25,0.00,,---,0.00,VWS V14.01,2013-03-30 23:12:00,
2013-03-30 17:17:00,57.9,21.4,29.91,NW,309,9.0,12.0,24,0.00,,---,0.00,VWS V14.01,2013-03-30 23:17:00,
2013-03-30 17:22:00,58.1,22.5,29.91,West,271,6.0,10.0,25,0.00,,---,0.00,VWS V14.01,2013-03-30 23:22:00,
2013-03-30 17:27:00,58.1,21.5,29.91,NW,304,12.0,15.0,24,0.00,,---,0.00,VWS V14.01,2013-03-30 23:27:00,
2013-03-30 17:32:00,58.0,21.4,29.91,WNW,298,6.0,9.0,24,0.00,,---,0.00,VWS V14.01,2013-03-30 23:32:00,
2013-03-30 17:37:00,57.7,21.2,29.91,NW,304,9.0,14.0,24,0.00,,---,0.00,VWS V14.01,2013-03-30 23:37:00,
2013-03-30 17:42:00,57.6,21.1,29.91,NW,307,10.0,18.0,24,0.00,,---,0.00,VWS V14.01,2013-03-30 23:42:00,
2013-03-30 17:47:00,57.2,20.8,29.93,WNW,290,7.0,14.0,24,0.00,,---,0.00,VWS V14.01,2013-03-30 23:47:00,
2013-03-30 17:52:00,57.2,20.8,29.93,West,263,14.0,16.0,24,0.00,,---,0.00,VWS V14.01,2013-03-30 23:52:00,
2013-03-30 17:57:00,56.9,21.5,29.94,NW,307,6.0,9.0,25,0.00,,---,0.00,VWS V14.01,2013-03-30 23:57:00,
2013-03-30 18:02:00,56.5,21.1,29.93,WNW,290,5.0,10.0,25,0.00,,---,0.00,VWS V14.01,2013-03-31 00:02:00,
2013-03-30 18:07:00,56.3,21.0,29.95,WNW,299,6.0,7.0,25,0.00,,---,0.00,VWS V14.01,2013-03-31 00:07:00,
2013-03-30 18:12:00,56.4,21.0,29.95,WNW,296,12.0,12.0,25,0.00,,---,0.00,VWS V14.01,2013-03-31 00:12:00,
2013-03-30 18:17:00,55.7,20.4,29.95,NW,311,11.0,13.0,25,0.00,,---,0.00,VWS V14.01,2013-03-31 00:17:00,
2013-03-30 18:22:00,55.1,20.9,29.95,West,279,7.0,7.0,26,0.00,,---,0.00,VWS V14.01,2013-03-31 00:22:00,
2013-03-30 18:27:00,54.8,20.6,29.96,WSW,254,6.0,9.0,26,0.00,,---,0.00,VWS V14.01,2013-03-31 00:27:00,
2013-03-30 18:32:00,54.5,20.3,29.96,WNW,302,6.0,10.0,26,0.00,,---,0.00,VWS V14.01,2013-03-31 00:32:00,
2013-03-30 18:37:00,54.1,20.9,29.97,WNW,296,9.0,9.0,27,0.00,,---,0.00,VWS V14.01,2013-03-31 00:37:00,
2013-03-30 18:42:00,54.0,21.6,29.98,NW,304,7.0,9.0,28,0.00,,---,0.00,VWS V14.01,2013-03-31 00:42:00,
2013-03-30 18:47:00,54.2,21.8,29.98,WNW,298,7.0,12.0,28,0.00,,---,0.00,VWS V14.01,2013-03-31 00:47:00,
2013-03-30 18:52:00,54.3,21.9,29.98,NW,306,5.0,6.0,28,0.00,,---,0.00,VWS V14.01,2013-03-31 00:52:00,
2013-03-30 18:57:00,53.9,21.6,29.98,NW,317,6.0,9.0,28,0.00,,---,0.00,VWS V14.01,2013-03-31 00:57:00,
2013-03-30 19:02:00,53.0,21.6,29.98,NNW,329,6.0,6.0,29,0.00,,---,0.00,VWS V14.01,2013-03-31 01:02:00,
2013-03-30 19:07:00,51.8,22.1,30.00,NNW,331,4.0,7.0,31,0.00,,---,0.00,VWS V14.01,2013-03-31 01:07:00,
2013-03-30 19:12:00,51.0,22.2,29.95,NNW,338,7.0,9.0,32,0.00,,---,0.00,VWS V14.01,2013-03-31 01:12:00,
2013-03-30 19:17:00,50.1,22.1,29.96,NNW,336,3.0,6.0,33,0.00,,---,0.00,VWS V14.01,2013-03-31 01:17:00,
2013-03-30 19:22:00,49.3,22.1,29.98,NNW,337,3.0,6.0,34,0.00,,---,0.00,VWS V14.01,2013-03-31 01:22:00,
2013-03-30 19:27:00,48.9,21.8,29.98,NNW,336,5.0,6.0,34,0.00,,---,0.00,VWS V14.01,2013-03-31 01:27:00,
2013-03-30 19:32:00,48.5,22.1,29.99,NNW,336,4.0,6.0,35,0.00,,---,0.00,VWS V14.01,2013-03-31 01:32:00,
2013-03-30 19:37:00,48.2,21.9,29.99,NNW,340,1.0,5.0,35,0.00,,---,0.00,VWS V14.01,2013-03-31 01:37:00,
2013-03-30 19:42:00,47.9,22.2,29.99,NNW,340,0.0,0.0,36,0.00,,---,0.00,VWS V14.01,2013-03-31 01:42:00,
2013-03-30 19:47:00,47.6,22.0,30.00,NNW,340,0.0,0.0,36,0.00,,---,0.00,VWS V14.01,2013-03-31 01:47:00,
2013-03-30 19:52:00,47.2,21.6,30.01,NNW,340,0.0,0.0,36,0.00,,---,0.00,VWS V14.01,2013-03-31 01:52:00,
2013-03-30 19:57:00,46.8,21.3,30.01,NNW,340,1.0,1.0,36,0.00,,---,0.00,VWS V14.01,2013-03-31 01:57:00,
2013-03-30 20:03:00,46.1,21.3,30.01,NNW,340,0.0,2.0,37,0.00,,---,0.00,VWS V14.01,2013-03-31 02:03:00,
2013-03-30 20:08:00,45.6,20.9,30.01,NNW,340,0.0,0.0,37,0.00,,---,0.00,VWS V14.01,2013-03-31 02:08:00,
2013-03-30 20:13:00,45.1,21.0,29.90,NNW,340,0.0,0.0,38,0.00,,---,0.00,VWS V14.01,2013-03-31 02:13:00,
2013-03-30 20:18:00,44.7,21.3,29.90,NNW,340,0.0,0.0,39,0.00,,---,0.00,VWS V14.01,2013-03-31 02:18:00,
2013-03-30 20:23:00,44.3,21.5,29.92,NNW,340,0.0,3.0,40,0.00,,---,0.00,VWS V14.01,2013-03-31 02:23:00,
2013-03-30 20:28:00,44.0,21.2,29.92,NNW,344,2.0,5.0,40,0.00,,---,0.00,VWS V14.01,2013-03-31 02:28:00,
2013-03-30 20:33:00,44.3,21.5,29.92,NNW,344,0.0,2.0,40,0.00,,---,0.00,VWS V14.01,2013-03-31 02:33:00,
2013-03-30 20:38:00,44.3,22.1,29.93,NNW,344,0.0,2.0,41,0.00,,---,0.00,VWS V14.01,2013-03-31 02:38:00,
2013-03-30 20:43:00,44.5,21.7,29.91,NNW,344,0.0,0.0,40,0.00,,---,0.00,VWS V14.01,2013-03-31 02:43:00,
2013-03-30 20:48:00,44.3,22.1,29.93,NNW,344,0.0,1.0,41,0.00,,---,0.00,VWS V14.01,2013-03-31 02:48:00,
2013-03-30 20:53:00,43.8,21.6,29.93,NNW,344,0.0,0.0,41,0.00,,---,0.00,VWS V14.01,2013-03-31 02:53:00,
2013-03-30 20:58:00,43.6,21.5,29.93,NNW,344,0.0,1.0,41,0.00,,---,0.00,VWS V14.01,2013-03-31 02:58:00,
2013-03-30 21:03:00,43.3,21.8,29.93,NNW,344,0.0,0.0,42,0.00,,---,0.00,VWS V14.01,2013-03-31 03:03:00,
2013-03-30 21:08:00,42.9,21.4,29.90,NNW,344,0.0,0.0,42,0.00,,---,0.00,VWS V14.01,2013-03-31 03:08:00,
2013-03-30 21:13:00,42.6,22.2,29.90,NNW,344,0.0,5.0,44,0.00,,---,0.00,VWS V14.01,2013-03-31 03:13:00,
2013-03-30 21:18:00,42.3,22.5,29.90,NNW,344,0.0,0.0,45,0.00,,---,0.00,VWS V14.01,2013-03-31 03:18:00,
2013-03-30 21:23:00,42.3,22.5,29.91,NNW,344,1.0,4.0,45,0.00,,---,0.00,VWS V14.01,2013-03-31 03:23:00,
2013-03-30 21:28:00,42.8,24.0,29.91,North,9,0.0,6.0,47,0.00,,---,0.00,VWS V14.01,2013-03-31 03:28:00,
2013-03-30 21:33:00,44.6,26.6,29.89,East,101,4.0,8.0,49,0.00,,---,0.00,VWS V14.01,2013-03-31 03:33:00,
2013-03-30 21:38:00,46.1,27.0,29.88,ESE,114,3.0,5.0,47,0.00,,---,0.00,VWS V14.01,2013-03-31 03:38:00,
2013-03-30 21:43:00,46.4,27.3,29.88,ESE,114,0.0,3.0,47,0.00,,---,0.00,VWS V14.01,2013-03-31 03:43:00,
2013-03-30 21:48:00,46.3,27.2,29.88,ESE,114,4.0,7.0,47,0.00,,---,0.00,VWS V14.01,2013-03-31 03:48:00,
2013-03-30 21:53:00,46.1,28.0,29.88,ESE,113,4.0,6.0,49,0.00,,---,0.00,VWS V14.01,2013-03-31 03:53:00,
2013-03-30 21:58:00,45.7,28.1,29.88,ESE,113,0.0,2.0,50,0.00,,---,0.00,VWS V14.01,2013-03-31 03:58:00,
2013-03-30 22:00:00,45.6,28.0,29.88,ESE,113,1.0,3.0,50,0.00,,---,0.00,VWS V14.01,2013-03-31 04:00:00,
2013-03-30 22:01:00,45.4,27.9,29.88,ESE,113,2.0,3.0,50,0.00,,---,0.00,VWS V14.01,2013-03-31 04:01:00,
2013-03-30 22:06:00,45.4,27.4,29.90,ESE,110,0.0,6.0,49,0.00,,---,0.00,VWS V14.01,2013-03-31 04:06:00,
2013-03-30 22:07:00,45.4,27.4,29.90,ESE,109,1.0,6.0,49,0.00,,---,0.00,VWS V14.01,2013-03-31 04:07:00,
2013-03-30 22:12:00,45.7,27.6,29.89,ESE,109,0.0,6.0,49,0.00,,---,0.00,VWS V14.01,2013-03-31 04:12:00,
2013-03-30 22:17:00,45.7,27.6,29.89,ESE,110,0.0,0.0,49,0.00,,---,0.00,VWS V14.01,2013-03-31 04:17:00,
2013-03-30 22:22:00,45.4,26.9,29.92,ESE,110,0.0,0.0,48,0.00,,---,0.00,VWS V14.01,2013-03-31 04:22:00,
2013-03-30 22:27:00,44.9,25.9,29.92,ESE,110,2.0,2.0,47,0.00,,---,0.00,VWS V14.01,2013-03-31 04:27:00,
2013-03-30 22:32:00,44.1,25.7,29.92,ESE,110,0.0,1.0,48,0.00,,---,0.00,VWS V14.01,2013-03-31 04:32:00,
2013-03-30 22:37:00,43.7,27.2,29.92,ESE,109,0.0,0.0,52,0.00,,---,0.00,VWS V14.01,2013-03-31 04:37:00,
2013-03-30 22:42:00,43.7,28.2,29.92,ESE,110,0.0,0.0,54,0.00,,---,0.00,VWS V14.01,2013-03-31 04:42:00,
2013-03-30 22:47:00,43.7,28.2,29.92,ESE,109,0.0,0.0,54,0.00,,---,0.00,VWS V14.01,2013-03-31 04:47:00,
2013-03-30 22:52:00,43.3,28.7,29.94,ESE,109,1.0,2.0,56,0.00,,---,0.00,VWS V14.01,2013-03-31 04:52:00,
2013-03-30 22:57:00,43.1,28.9,29.94,ESE,109,1.0,2.0,57,0.00,,---,0.00,VWS V14.01,2013-03-31 04:57:00,
2013-03-30 23:02:00,42.9,28.7,29.95,ESE,109,0.0,0.0,57,0.00,,---,0.00,VWS V14.01,2013-03-31 05:02:00,